{"data":{"norad_id":65594,"epoch":"2026-09-20T22:00:03.000096Z","epoch_age_seconds":76050,"freshness":"FRESH","line1":"1 65594U 25207C   26263.91670139 -.00010073  00000+0 -31052-3 0  9996","line2":"2 65594  97.2854 326.3720 0001661  81.9783  48.5292 15.33399076  5796","mean_motion":15.33399076,"eccentricity":0.0001661,"inclination_deg":97.2854,"raan_deg":326.372,"arg_perigee_deg":81.9783,"mean_anomaly_deg":48.5292,"bstar":-0.00031052,"rev_number":579,"period_min":93.909017067909,"perigee_km":464.54305742895,"apogee_km":466.81657337502,"semimajor_km":6843.816815402,"source":"CELESTRAK","updated_at":"2026-09-21T09:00:35.653132Z"}}